Flag for Panama Weather past 2 weeks in Colón, Panama

Now
81 °F

Passing clouds.


Feels Like: 86 °F
Forecast: 79 / 84 °F
Wind: 3 mph from North

Location: Marcos A. Gelabert

Current Time: Apr 20, 2015 at 8:45:57 PM

Latest Report: Apr 20, 2015 at 8:00 PM


Visibility: N/A

Pressure: 29.80 "Hg

Humidity: 84%

Dew point: 75 °F

Location of ColónLocation

Historic Weather in Colón — Graph

°F

Colón temperature yesterday

Maximum temperature yesterday: 90 °F (at 11:00 AM)
Minimum temperature yesterday: 79 °F (at 7:00 AM)
Average temperature yesterday: 85 °F

Past Weeks' High & Low Weather Summary

 TemperatureHumidityPressure
High93 °F (Apr 11, 2:00 PM)94% (Apr 12, 4:00 AM)29.95 "Hg (Apr 12, 4:00 AM)
Low77 °F (Apr 6, 6:00 AM)46% (Apr 6, 2:00 PM)29.74 "Hg (Apr 6, 4:00 PM)
Average84 °F73%29.83 "Hg
* Reported Apr 5 7:00 PM — Apr 20 7:00 PM, Colón, Weather by CustomWeather, © 2015

Note: Actual official high and low records may vary slightly from our data, if they occured in-between our weather recording intervals... More about our weather records

Advertising

Colón weather history for previous 24 hours

 ConditionsComfort  
Time TempWeatherWind HumidityBarometerVisibility
7:00 PM
Mon, Apr 20
81 °FPassing clouds.6 mph79%29.77 "Hg6 mi
6:00 PM81 °FPassing clouds.5 mph84%29.74 "Hg5 mi
5:17 PM81 °FScattered clouds.7 mph84%29.77 "Hg5 mi
5:00 PM81 °FScattered clouds.9 mph84%29.77 "Hg5 mi
4:00 PM84 °FScattered clouds.9 mph70%29.77 "Hg4 mi
3:00 PM88 °FScattered showers. Scattered clouds.7 mph66%29.77 "Hg5 mi
2:00 PM84 °FScattered showers. Scattered clouds.7 mph74%29.80 "Hg5 mi
1:00 PM90 °FScattered clouds.9 mph63%29.83 "Hg6 mi
12:00 PM86 °FScattered clouds.No wind66%29.83 "Hg6 mi
11:00 AM86 °FScattered clouds.8 mph70%29.86 "Hg5 mi
10:00 AM86 °FScattered clouds.8 mph66%29.86 "Hg5 mi
9:00 AM84 °FPassing clouds.No wind74%29.86 "Hg5 mi
8:00 AM81 °FScattered clouds.No wind84%29.86 "Hg5 mi
7:00 AM77 °FPassing clouds.No wind94%29.83 "Hg5 mi
6:00 AM79 °FPassing clouds.3 mph89%29.83 "Hg5 mi
10:00 PM
Sun, Apr 19
81 °FPassing clouds.3 mph79%29.83 "HgN/A
9:00 PM81 °FPassing clouds.6 mph79%29.80 "HgN/A
8:00 PM82 °FPassing clouds.2 mph74%29.80 "HgN/A
Weather by CustomWeather, © 2015

See weather overviewHow to use our weather pages